{"data":{"norad_id":62251,"epoch":"2026-09-22T19:43:57.571104Z","epoch_age_seconds":109560,"freshness":"FRESH","line1":"1 62251U 24232Q   26265.82219411  .00000099  00000+0  13463-3 0  9995","line2":"2 62251  89.0171  12.7560 0017778  96.9453 263.3721 13.51030523106229","mean_motion":13.51030523,"eccentricity":0.0017778,"inclination_deg":89.0171,"raan_deg":12.756,"arg_perigee_deg":96.9453,"mean_anomaly_deg":263.3721,"bstar":0.00013463,"rev_number":10622,"period_min":106.58530473482,"perigee_km":1055.2308485039,"apogee_km":1081.7080023101,"semimajor_km":7446.606425407,"source":"CELESTRAK","updated_at":"2026-09-23T09:00:21.336836Z"}}